Location: Schoeneck
(50.3760°N, 12.3330°E)
Time: 11:57:42
(UTC+02:00)

ISS - Visible Passes

Search period start: 27 May 2017 00:00
Search period end: 06 June 2017 00:00
Orbit: 402 x 408 km, 51.6° (Epoch: 27 May)

Date Brightness Start Highest point End Pass type
(mag) Time Alt. Az. Time Alt. Az. Time Alt. Az.
27 May -3.6 00:58:54 10° WNW 01:02:12 72° N 01:05:29 10° E visible
27 May -3.6 02:35:28 10° W 02:38:38 46° SSW 02:41:48 10° SE visible
27 May -1.8 04:13:43 10° WSW 04:14:30 11° SW 04:15:16 10° SSW visible
27 May -3.9 22:30:14 10° WSW 22:33:32 75° SSE 22:36:50 10° ENE visible
28 May -3.5 00:06:49 10° W 00:10:06 68° N 00:13:24 10° E visible
28 May -4.0 01:43:22 10° WNW 01:46:39 67° SSW 01:47:26 47° SE visible
28 May -3.5 23:14:42 10° W 23:18:01 70° N 23:21:18 10° E visible
29 May -3.9 00:51:19 10° WNW 00:54:37 89° S 00:56:01 32° ESE visible
29 May -1.5 02:28:02 10° W 02:28:37 13° W 02:28:37 13° W visible
29 May -3.7 22:22:36 10° W 22:25:55 80° N 22:29:13 10° ENE visible
29 May -3.7 23:59:14 10° WNW 00:02:32 76° N 00:05:08 15° E visible
30 May -2.6 01:35:49 10° W 01:37:45 28° WSW 01:37:45 28° WSW visible
30 May -3.5 23:07:07 10° W 23:10:25 69° N 23:13:42 10° E visible
31 May -3.9 00:43:41 10° WNW 00:46:56 59° SSW 00:47:03 58° S visible
31 May -3.5 22:15:00 10° W 22:18:17 68° N 22:21:35 10° E visible
31 May -4.0 23:51:34 10° WNW 23:54:52 81° SSW 23:56:28 28° ESE visible
01 Jun -1.5 01:28:24 10° W 01:29:05 14° W 01:29:05 14° W visible
01 Jun -3.8 22:59:27 10° WNW 23:02:46 81° N 23:05:55 11° E visible
02 Jun -2.8 00:36:04 10° W 00:38:33 32° SW 00:38:33 32° SW visible
02 Jun -3.5 22:07:19 10° W 22:10:37 71° N 22:13:54 10° E visible
02 Jun -3.6 23:43:52 10° WNW 23:47:05 51° SSW 23:48:02 36° SSE visible
03 Jun -3.9 22:51:43 10° WNW 22:55:01 73° SSW 22:57:34 15° ESE visible
04 Jun -1.8 00:28:41 10° W 00:30:13 17° WSW 00:30:13 17° WSW visible
04 Jun -3.8 21:59:34 10° WNW 22:02:52 86° N 22:06:10 10° ESE visible
04 Jun -2.8 23:36:13 10° W 23:39:09 29° SSW 23:39:46 27° S visible
05 Jun -3.3 22:43:57 10° W 22:47:08 44° SSW 22:49:21 17° SE visible
